Find Starlink 5050

NORAD ID: 53890 Int'l Des: 2022-119 Owner: SPXS Country: US Constellation: starlink operational
LEOCIRCULAR

实时位置

正在加载3D地球...

关于 Starlink 5050

正在加载描述...

即将过境

Passes for default location (London). Set your location on the main map for personalized predictions.

高度历史

Loading altitude history...

两行轨道根数

1 53890U 22119E 26121.51812301 .00004809 00000-0 32018-3 0 9991
2 53890 53.2186 51.7488 0001772 86.5293 273.5901 15.08822768200157
Epoch: May 1, 2026 • Age: 6 hours

当前状态

高度 544.2 km
速度 7.59 km/s
星下点 -14.84°S, 111.17°E
发射日期 Sep 24, 2022
运行时间 3.5 years
类型 internet

技术详情

分类 Payload
质量 305.00 kg
干质量 290.00 kg
总质量 305.00 kg
长度 0.20 m
直径 2.80 m
跨度 9.00 m
形状 Box + pan
制造商 SPXS
平台类型 Starlink
阶段状态 In Orbit
所有者/国家 SPXS/US

Most Searched